Regional Weather Roundup
Issued by NWS Green Bay, WI

Home | Current Version | Previous Version | Graphics & Text | Print | Product List | Glossary Off
Versions: 1 2 3 4 5 6 7 8 9 10 11 12 13 14 15 16 17 18 19 20 21 22 23 24 25 26 27 28 29 30 31 32 33 34 35 36 37 38 39 40 41 42 43 44 45 46 47 48 49 50

000
ASUS43 KGRB 300310
RWRGRB

NORTH-CENTRAL AND NORTHEAST WISCONSIN REGIONAL WEATHER ROUNDUP
NATIONAL WEATHER SERVICE GREEN BAY WI
1000 PM CDT MON SEP 29 2014

WIZ005-009-010>012-018-019-300400-
NORTH CENTRAL WISCONSIN

CITY           SKY/WX    TMP DP  RH WIND       PRES   REMARKS
IRONWOOD       NOT AVBL
MANITOWISH WTR CLOUDY    37  37 100 NE10      30.16S
ARBOR VITAE    CLOUDY    39  37  90 NE8       30.15S
EAGLE RIVER    LGT SNOW  37  37 100 NE12      30.14F
LAND O LAKES   CLOUDY    37  37  98 N7        30.16F FOG
RHINELANDER    CLOUDY    38  36  92 NE6       30.16R
PHILLIPS       CLOUDY    39  37  94 NE13G18   30.15F
ANTIGO         CLOUDY    40  37  88 N9        30.12S
TOMAHAWK       CLOUDY    39  36  87 N9        30.15R
MERRILL        CLOUDY    41  38  88 N8        30.14R
$$

WIZ013-073-300400-
NORTHEAST WISCONSIN

CITY           SKY/WX    TMP DP  RH WIND       PRES   REMARKS
IRON MOUNTAIN  CLOUDY    42  38  85 N15       30.12S
MARINETTE      NOT AVBL
OCONTO         CLOUDY    44  38  82 NE13      30.11S
$$

WIZ017-030-035>037-045-300400-
CENTRAL WISCONSIN

CITY           SKY/WX    TMP DP  RH WIND       PRES   REMARKS
MEDFORD        CLOUDY    40  37  90 NE9       30.13R
WAUSAU         CLOUDY    43  37  79 N10       30.11S
MOSINEE        MOCLDY    43  39  87 N10       30.12S
MARSHFIELD     CLEAR     44  39  82 NE9       30.10S
WISC RAPIDS    MOCLDY    48  41  76 NE7       30.11S
STEVENS POINT  CLOUDY    45  39  81 N7        30.11S
WAUPACA        CLOUDY    49  41  74 N6        30.10S
SHAWANO        CLOUDY    47  40  75 N12       30.12S
CLINTONVILLE   CLOUDY    45  37  76 N9        30.11S
$$

WIZ038-039-048-051-300400-
FOX VALLEY

CITY           SKY/WX    TMP DP  RH WIND       PRES   REMARKS
NWS GREEN BAY  MOCLDY    46  40  79 N10       30.10R
APPLETON       CLOUDY    46  39  76 N12G18    30.09S
OSHKOSH        CLOUDY    49  42  77 N13       30.08S
FOND DU LAC    CLOUDY    50  44  80 N17       30.08S
$$

WIZ022-050-052-300400-
EAST CENTRAL WISCONSIN

CITY           SKY/WX    TMP DP  RH WIND       PRES   REMARKS
STURGEON BAY   NOT AVBL
MANITOWOC      NOT AVBL
SHEBOYGAN      NOT AVBL
$$

LMZ563-521-522-541>543-300400-
LAKESHORE

STATION/POSITION TIME  TEMP    WIND        PRES    VSBY  WAVE
                       AIR SEA DIR/SP/G                  HT/PER
                 (UTC) (F)     (DEG/KT/KT) (MB)    (MI)  (FT/S)
SHEBOYGAN LKSHOR 0300   49 55   10/ 23/ 25 1018.3F
KEWAUNEE LKSHORE 0300   46     350/  8/ 15 1017.9F
NORTHPORT PIER   0300   47     360/ 20/ 26 1019.0S
N MID LAKE BUOY  0300   47 58  350/ 21/ 25 1017.5R         5/ 5
S GREEN BAY BUOY 0200   48     VRB 17/ 21  1020.1R
CHAMBERS ISLAND  0300   47     340/ 22/ 25 1019.3S
MENOMINEE LKSHOR 0300   45     350/ 19/ 23 1020.0R
$$


USA.gov is the U.S. government's official web portal to all federal, state and local government web resources and services.